EW9060 Weather Reports


time (UTC)temp
F
wind
direction
speed
knots
gust
knots
rain 1hr
in
rain 24hr
in
rain mn
in
humidity
%
barometer
mb
20260906024534 78 185 1.7 7.0 0.00 0.00 0.00 39 1013.1
20260906023033 79 200 0.9 6.1 0.00 0.00 0.00 38 1013.0
20260906021531 80 207 2.6 9.6 0.00 0.00 0.00 38 1013.0
20260906020038 81 185 2.6 7.8 0.00 0.00 0.00 36 1013.0
20260906014545 83 223 3.5 10.4 0.00 0.00 0.00 29 1012.9
20260906013032 84 155 1.7 7.8 0.00 0.00 0.00 27 1012.9
20260906011537 84 194 2.6 7.8 0.00 0.00 0.00 28 1013.0
20260906010028 85 146 2.6 7.0 0.00 0.00 0.00 28 1013.1
20260906004536 85 161 1.7 7.8 0.00 0.00 0.00 28 1013.1
20260906003043 85 192 1.7 9.6 0.00 0.00 0.00 28 1013.1
20260906001526 86 319 1.7 6.1 0.00 0.00 0.00 30 1013.0
20260906000023 85 182 4.3 10.4 0.00 0.00 0.00 29 1013.1
20260905234524 86 189 0.9 3.5 0.00 0.00 0.00 29 1013.2
20260905233020 86 157 0.9 7.0 0.00 0.00 0.00 29 1013.2
20260905231517 86 212 1.7 7.0 0.00 0.00 0.00 29 1013.4
20260905230016 85 258 0.9 7.8 0.00 0.00 0.00 30 1013.5
20260905224522 86 171 2.6 6.1 0.00 0.00 0.00 29 1013.7
20260905223007 84 130 0.9 5.2 0.00 0.00 0.00 30 1013.8
20260905221505 84 272 0.9 7.0 0.00 0.00 0.00 33 1013.8
20260905220005 83 288 0.0 3.5 0.00 0.00 0.00 33 1014.1
20260905214501 84 344 0.0 4.3 0.00 0.00 0.00 34 1014.2
20260905213058 83 61 0.9 5.2 0.00 0.00 0.00 32 1014.4
20260905211554 83 134 2.6 7.8 0.00 0.00 0.00 31 1014.6
20260905210052 81 226 0.0 4.3 0.00 0.00 0.00 35 1014.7
20260905204559 81 149 1.7 6.1 0.00 0.00 0.00 33 1014.8
20260905203055 80 235 0.9 7.0 0.00 0.00 0.00 33 1015.0
20260905201546 79 102 1.7 7.0 0.00 0.00 0.00 39 1014.9
20260905200052 79 154 1.7 6.1 0.00 0.00 0.00 41 1015.0
20260905194547 78 360 0.9 3.5 0.00 0.00 0.00 44 1015.2
20260905193037 77 79 0.9 4.3 0.00 0.00 0.00 45 1015.3
20260905191534 76 57 1.7 4.3 0.00 0.00 0.00 46 1015.5
20260905190034 75 105 1.7 4.3 0.00 0.00 0.00 50 1015.5
20260905184533 74 125 1.7 5.2 0.00 0.00 0.00 51 1015.6
20260905183026 73 169 1.7 4.3 0.00 0.00 0.00 54 1015.7
20260905181531 72 96 0.0 3.5 0.00 0.00 0.00 57 1015.7
20260905180019 71 65 0.9 3.5 0.00 0.00 0.00 58 1015.7
20260905174518 71 360 0.0 5.2 0.00 0.00 0.00 59 1015.7
20260905173015 69 67 2.6 5.2 0.00 0.00 0.00 61 1015.5
20260905171522 68 46 0.0 2.6 0.00 0.00 0.00 65 1015.5
20260905170006 67 220 0.0 2.6 0.00 0.00 0.00 66 1015.4
20260905164502 66 115 0.9 4.3 0.00 0.00 0.00 68 1015.6
20260905163100 65 53 1.7 3.5 0.00 0.00 0.00 70 1015.4
20260905161555 64 75 0.9 2.6 0.00 0.00 0.00 72 1015.5
20260905160054 63 206 0.0 3.5 0.00 0.00 0.00 75 1015.5
20260905154555 62 73 0.0 2.6 0.00 0.00 0.00 77 1015.5
20260905153047 60 171 0.0 4.3 0.00 0.00 0.00 79 1015.6
20260905151550 59 161 0.9 4.3 0.00 0.00 0.00 80 1015.4
20260905150052 58 120 0.0 3.5 0.00 0.00 0.00 81 1015.5
20260905144547 58 11 0.0 1.7 0.00 0.00 0.00 82 1015.5
20260905143049 57 13 0.0 3.5 0.00 0.00 0.00 84 1015.4
20260905141539 55 111 0.0 1.7 0.00 0.00 0.00 85 1015.2
20260905140038 55 142 0.0 0.9 0.00 0.00 0.00 86 1015.1
20260905134536 55 120 0.0 2.6 0.00 0.00 0.00 86 1014.9
20260905133035 55 88 0.0 2.6 0.00 0.00 0.00 86 1014.9
20260905131546 55 113 0.0 1.7 0.00 0.00 0.00 86 1014.9
20260905130033 55 101 0.0 0.0 0.00 0.00 0.00 85 1014.9
20260905124536 55 109 0.0 1.7 0.00 0.00 0.00 84 1014.8
20260905123029 56 92 0.0 1.7 0.00 0.00 0.00 83 1014.8
20260905121529 56 111 0.0 2.6 0.00 0.00 0.00 83 1014.8
20260905120026 57 141 0.0 0.0 0.00 0.00 0.00 82 1014.8
20260905114537 57 136 0.0 2.6 0.00 0.00 0.00 82 1014.8
20260905113033 57 107 0.9 2.6 0.00 0.00 0.00 81 1014.8
20260905111524 57 118 1.7 5.2 0.00 0.00 0.00 80 1014.8
20260905110021 58 103 0.9 5.2 0.00 0.00 0.00 80 1014.9
20260905104522 58 121 0.0 3.5 0.00 0.00 0.00 79 1014.8
20260905103024 58 119 0.0 3.5 0.00 0.00 0.00 78 1014.7
20260905101527 58 128 0.9 2.6 0.00 0.00 0.00 77 1014.9
20260905100022 58 127 0.9 2.6 0.00 0.00 0.00 77 1014.9
20260905094515 59 130 0.9 2.6 0.00 0.00 0.00 76 1015.0
20260905093016 59 164 0.0 3.5 0.00 0.00 0.00 75 1015.1
20260905091513 59 161 0.9 3.5 0.00 0.00 0.00 74 1015.0
20260905090015 60 139 0.0 3.5 0.00 0.00 0.00 74 1015.1
20260905084509 60 121 1.7 4.3 0.00 0.00 0.00 73 1015.1
20260905083008 60 124 0.9 3.5 0.00 0.00 0.00 73 1015.2
20260905081508 60 133 0.9 4.3 0.00 0.00 0.00 73 1015.2
20260905080007 61 127 0.0 4.3 0.00 0.00 0.00 73 1015.1
20260905074504 61 182 0.0 3.5 0.00 0.00 0.00 73 1015.0
20260905073003 61 159 0.9 4.3 0.00 0.00 0.00 73 1014.8
20260905071503 61 161 0.9 4.3 0.00 0.00 0.00 71 1014.8
20260905070100 62 132 0.0 3.5 0.00 0.00 0.00 70 1014.7
20260905064600 62 150 1.7 5.2 0.00 0.02 0.00 69 1014.6
20260905063102 63 188 0.9 3.5 0.00 0.02 0.00 68 1014.5
20260905061611 63 180 0.0 3.5 0.00 0.02 0.00 66 1014.4
20260905060055 64 157 0.9 4.3 0.00 0.02 0.00 65 1014.4
20260905054555 64 154 0.9 4.3 0.00 0.02 0.00 63 1014.4
20260905053059 65 172 0.0 2.6 0.00 0.02 0.00 61 1014.4
20260905051554 66 182 0.0 2.6 0.00 0.02 0.00 60 1014.4
20260905050053 67 218 0.9 5.2 0.00 0.02 0.00 59 1014.5
20260905044558 67 215 0.0 3.5 0.00 0.02 0.00 58 1014.5
20260905043052 68 188 0.0 4.3 0.00 0.02 0.00 56 1014.4
20260905041554 68 248 0.9 3.5 0.00 0.02 0.00 56 1014.3
20260905040051 69 223 1.7 4.3 0.00 0.02 0.00 55 1014.2
20260905034553 70 142 1.7 5.2 0.00 0.02 0.00 54 1014.0
20260905033050 70 205 1.7 6.1 0.00 0.02 0.00 52 1013.8
20260905031549 71 188 3.5 8.7 0.00 0.02 0.00 50 1013.6
20260905030101 73 231 1.7 7.0 0.00 0.02 0.00 49 1013.6